This demonstration page uses our WeatherBlox Daily Observations layout. Learn more.

Hourly Observations for June 20, 2018

Temp ( °F °C ) Dew Point ( °F °C ) Humidity (%) Winds ( mph kmh ) Pressure ( in mb ) Visibility ( mi km ) Precip ( " mm )
12:15 am 00:15 Cloudy with Rain 64 17.5 64 17.5 100 100 N 3 6 29.94 1014 10 16.09344 0.02 0.508
12:35 am 00:35 Cloudy with Rain 64 17.6 64 17.6 100 100 Calm 29.91 1013 7 11.265408 0.07 1.778
12:55 am 00:55 Cloudy with Rain 64 17.7 64 17.5 99 99 W 6 9 29.94 1014 10 16.09344 0.11 2.794
1:15 am 01:15 Cloudy with Rain 64 17.6 64 17.6 100 100 W 10 17 29.94 1014 10 16.09344 0.05 1.27
1:35 am 01:35 Cloudy with Nearby Thunderstorms 64 17.5 64 17.5 100 100 WNW 9 15 29.94 1014 7 11.265408 0.1 2.54
1:55 am 01:55 Cloudy with Rain 63 17.3 63 17.3 100 100 N 7 11 29.91 1013 10 16.09344 0.15 3.81
2:15 am 02:15 Cloudy with Light Rain 63 17.2 63 17.2 100 100 NNE 15 24 29.88 1012 10 16.09344 0.01 0.254
2:35 am 02:35 Mostly Cloudy with Light Rain 63 17.1 63 17.1 100 100 ENE 25 41 29.8 1009 10 16.09344 0.02 0.508
2:55 am 02:55 Partly Cloudy 63 17 63 17 100 100 ENE 23 37 29.74 1007 10 16.09344 0.02 0.508
3:15 am 03:15 Clear 63 17.2 61 16.2 94 94 ENE 8 13 29.83 1010 10 16.09344 0 0
3:35 am 03:35 Clear 64 17.5 61 16 91 91 S 5 7 29.85 1011 10 16.09344 0 0
3:55 am 03:55 Clear 63 17 61 16.3 96 96 SW 7 11 29.88 1012 10 16.09344 0 0
4:15 am 04:15 Clear 63 17 62 16.4 96 96 SW 8 13 29.88 1012 10 16.09344 0 0
4:35 am 04:35 Clear 62 16.9 61 16.3 96 96 WSW 8 13 29.88 1012 10 16.09344 0 0
4:55 am 04:55 Clear 63 17 62 16.6 98 98 W 10 17 29.85 1011 10 16.09344 0 0
5:15 am 05:15 Clear 62 16.8 62 16.6 99 99 W 8 13 29.88 1012 10 16.09344 0 0
5:35 am 05:35 Mostly Cloudy 63 17 62 16.5 97 97 W 5 7 29.88 1012 10 16.09344 0 0
5:55 am 05:55 Cloudy 63 17.2 63 17 99 99 W 5 7 29.88 1012 10 16.09344 0 0
6:15 am 06:15 Cloudy 64 17.5 63 17.1 98 98 W 3 6 29.91 1013 10 16.09344 0 0
6:35 am 06:35 Cloudy 64 17.5 63 17.3 99 99 W 5 7 29.91 1013 10 16.09344 0 0
6:55 am 06:55 Mostly Cloudy 64 17.5 63 17.3 99 99 W 5 7 29.91 1013 10 16.09344 0 0
7:15 am 07:15 Partly Cloudy 64 17.7 64 17.5 99 99 W 5 7 29.88 1012 10 16.09344 0 0
7:35 am 07:35 Partly Cloudy 65 18.1 64 17.6 97 97 W 8 13 29.88 1012 10 16.09344 0 0
7:55 am 07:55 Mostly Cloudy 65 18.1 64 17.6 97 97 W 7 11 29.88 1012 10 16.09344 0 0
8:15 am 08:15 Cloudy 65 18.5 64 18 97 97 W 9 15 29.88 1012 10 16.09344 0 0
8:35 am 08:35 Cloudy 66 18.9 64 18 95 95 WNW 8 13 29.85 1011 10 16.09344 0 0
8:55 am 08:55 Partly Cloudy 66 18.8 65 18.1 96 96 NW 7 11 29.88 1012 10 16.09344 0 0
9:15 am 09:15 Sunny 68 20.2 66 18.9 92 92 NW 12 19 29.85 1011 10 16.09344 0 0
9:35 am 09:35 Partly Cloudy 70 21.1 65 18.6 86 86 NW 15 24 29.85 1011 10 16.09344 0 0
9:55 am 09:55 Sunny 71 21.6 65 18.6 83 83 NW 14 22 29.85 1011 10 16.09344 0 0
10:15 am 10:15 Partly Cloudy 71 21.5 65 18.1 81 81 NW 13 20 29.85 1011 10 16.09344 0 0
10:35 am 10:35 Mostly Cloudy 71 21.7 64 17.8 79 79 NW 15 24 29.85 1011 10 16.09344 0 0
10:55 am 10:55 Mostly Cloudy 72 22.1 64 17.8 77 77 NW 16 26 29.85 1011 10 16.09344 0 0
11:15 am 11:15 Partly Cloudy 74 23.1 64 18 73 73 NW 13 20 29.83 1010 10 16.09344 0 0
11:35 am 11:35 Mostly Cloudy 73 22.7 64 17.6 73 73 NW 14 22 29.83 1010 10 16.09344 0 0
11:55 am 11:55 Mostly Cloudy 73 22.9 63 17.1 70 70 N 14 22 29.85 1011 10 16.09344 0 0
12:15 pm 12:15 Mostly Cloudy 71 21.7 64 18 80 80 N 15 24 29.88 1012 10 16.09344 0 0
12:35 pm 12:35 Mostly Cloudy 73 22.9 65 18.4 76 76 N 14 22 29.85 1011 10 16.09344 0 0
12:55 pm 12:55 Mostly Cloudy 73 22.7 61 16.3 67 67 NNW 14 22 29.83 1010 10 16.09344 0 0
1:15 pm 13:15 Mostly Cloudy 73 22.8 64 18 74 74 NNW 6 9 29.83 1010 10 16.09344 0 0
1:35 pm 13:35 Mostly Cloudy 74 23.5 62 16.9 67 67 N 9 15 29.83 1010 10 16.09344 0 0
1:55 pm 13:55 Mostly Cloudy 74 23.5 61 16.1 63 63 NW 9 15 29.83 1010 10 16.09344 0 0
2:15 pm 14:15 Mostly Cloudy 74 23.1 62 16.9 68 68 NNE 5 7 29.83 1010 10 16.09344 0 0
2:35 pm 14:35 Mostly Cloudy 75 24.1 64 17.9 68 68 N 8 13 29.83 1010 10 16.09344 0 0
2:55 pm 14:55 Mostly Cloudy 74 23.5 63 17.1 67 67 N 8 13 29.83 1010 10 16.09344 0 0
3:15 pm 15:15 Partly Cloudy 76 24.6 63 17.1 63 63 WNW 8 13 29.8 1009 10 16.09344 0 0
3:35 pm 15:35 Partly Cloudy 77 25 59 15.2 55 55 WNW 13 20 29.8 1009 10 16.09344 0 0
3:55 pm 15:55 Partly Cloudy 77 25.1 58 14.4 52 52 WNW 12 19 29.8 1009 10 16.09344 0 0
4:15 pm 16:15 Partly Cloudy 76 24.5 64 17.6 66 66 N 7 11 29.8 1009 10 16.09344 0 0
4:35 pm 16:35 Mostly Cloudy 73 22.6 62 16.8 70 70 N 8 13 29.8 1009 10 16.09344 0 0
4:55 pm 16:55 Mostly Cloudy 69 20.8 62 16.8 78 78 N 15 24 29.85 1011 10 16.09344 0 0
5:15 pm 17:15 Mostly Cloudy 70 21.2 61 16.2 73 73 N 16 26 29.85 1011 10 16.09344 0 0
5:35 pm 17:35 Mostly Cloudy 69 20.7 62 16.8 78 78 N 15 24 29.85 1011 10 16.09344 0 0
5:55 pm 17:55 Mostly Cloudy 69 20.5 62 16.6 78 78 N 16 26 29.85 1011 10 16.09344 0 0
6:15 pm 18:15 Partly Cloudy 69 20.5 61 16 76 76 N 16 26 29.85 1011 10 16.09344 0 0
6:35 pm 18:35 Mostly Cloudy 68 19.8 61 16.3 80 80 N 15 24 29.88 1012 10 16.09344 0 0
6:55 pm 18:55 Mostly Cloudy 68 19.8 60 15.6 77 77 N 13 20 29.88 1012 10 16.09344 0 0
7:15 pm 19:15 Partly Cloudy 67 19.6 60 15.7 78 78 N 14 22 29.88 1012 10 16.09344 0 0
7:35 pm 19:35 Mostly Cloudy 67 19.3 59 15.2 77 77 N 13 20 29.88 1012 10 16.09344 0 0
7:55 pm 19:55 Partly Cloudy 67 19.2 58 14.6 75 75 N 14 22 29.88 1012 10 16.09344 0 0
8:15 pm 20:15 Sunny 66 19 58 14.6 76 76 NNW 12 19 29.91 1013 10 16.09344 0 0
8:35 pm 20:35 Sunny 65 18.5 59 15 80 80 N 9 15 29.91 1013 10 16.09344 0 0
8:55 pm 20:55 Sunny 65 18.3 58 14.5 79 79 N 10 17 29.94 1014 10 16.09344 0 0
9:15 pm 21:15 Clear 64 18 58 14.3 79 79 N 10 17 29.94 1014 10 16.09344 0 0
9:35 pm 21:35 Clear 63 17.4 58 14.5 83 83 N 9 15 29.94 1014 10 16.09344 0 0
9:55 pm 21:55 Clear 62 16.5 58 14.7 89 89 N 9 15 29.94 1014 10 16.09344 0 0
10:15 pm 22:15 Clear 62 16.5 59 14.8 90 90 N 7 11 29.94 1014 10 16.09344 0 0
10:35 pm 22:35 Clear 61 16 59 14.9 93 93 NW 5 7 30 1016 10 16.09344 0 0
10:55 pm 22:55 Clear 61 16 58 14.7 92 92 NNW 6 9 30 1016 10 16.09344 0 0
11:15 pm 23:15 Clear 61 16.1 58 14.5 90 90 NNW 8 13 29.94 1014 10 16.09344 0 0
11:35 pm 23:35 Clear 61 16 58 14.5 91 91 NNW 7 11 29.94 1014 10 16.09344 0 0
11:55 pm 23:55 Clear 60 15.8 58 14.5 92 92 NW 6 9 29.97 1015 10 16.09344 0 0

Powered by AerisWeather